Location: Gunung Kajang
(2.4167°N, 113.7167°E)
Time: 16:27:56
(UTC+00:00)

ARIANE 44L R/B - Pass Details

Date: 29 May 2022
Orbit: 284 x 31462 km, 7.3° (Epoch: 06 July)

Event Time Altitude Azimuth Distance (km) Brightness Sun altitude
Rises 04:23:42 0° 262° (W) 16,173 9.7 70.8°
Reaches altitude 10° 04:39:36 10° 261° (W) 18,531 10.2 70.4°
Drops below altitude 10° 09:17:00 10° 269° (W) 34,535 12.9 16.1°
Maximum altitude 12:32:53 68° 356° (N) 1,516 4.4 -29.0°
Enters shadow 12:34:23 53° 55° (NE) 1,393 4.0 -29.3°
